QPF
0.00 0.00 0.00 0.00 0.00 0.00 0.00 0.00 0.00 0.00 0.00 0.00 0.00 0.00 0.00 0.00 0.00 0.00 0.04 0.05 0.00 0.00 0.00 0.00 0.00 0.00 0.00 0.00 0.00 0.00 0.00 0.00 0.00 0.00 0.00 0.00 0.00 0.00 0.00 0.00 0.00 0.00 0.00
0.00 0.00 0.00 0.00 0.00 0.00 0.00 0.00 0.00 0.00 0.00 0.00 0.00 0.00 0.00 0.00 0.00 0.01 0.10 0.09 0.01 0.00 0.00 0.00 0.00 0.00 0.00 0.00 0.00 0.00 0.00 0.00 0.00 0.00 0.00 0.00 0.00 0.00 0.00 0.00 0.00 0.00 0.00
0.00 0.00 0.00 0.00 0.00 0.00 0.00 0.00 0.00 0.00 0.00 0.00 0.00 0.00 0.00 0.00 0.00 0.06 0.16 0.04 0.00 0.00 0.00 0.00 0.00 0.00 0.00 0.00 0.00 0.00 0.01 0.00 0.00 0.00 0.00 0.00 0.00 0.00 0.00 0.00 0.00 0.00 0.00
0.00 0.00 0.00 0.00 0.00 0.00 0.00 0.00 0.00 0.00 0.00 0.00 0.00 0.00 0.00 0.00 0.02 0.09 0.04 0.00 0.00 0.00 0.00 0.00 0.00 0.00 0.00 0.00 0.00 0.00 0.00 0.00 0.00 0.00 0.00 0.00 0.00 0.00 0.00 0.00 0.00 0.00 0.00
0.00 0.00 0.00 0.00 0.00 0.00 0.00 0.00 0.00 0.00 0.00 0.00 0.00 0.00 0.00 0.01 0.06 0.03 0.01 0.00 0.00 0.00 0.00 0.00 0.00 0.00 0.00 0.00 0.00 0.00 0.00 0.00 0.00 0.00 0.00 0.00 0.00 0.00 0.00 0.00 0.00 0.00 0.00
0.00 0.00 0.00 0.00 0.00 0.00 0.00 0.00 0.00 0.00 0.00 0.00 0.00 0.00 0.00 0.01 0.04 0.04 0.00 0.00 0.00 0.00 0.00 0.00 0.00 0.00 0.00 0.00 0.00 0.00 0.00 0.00 0.00 0.00 0.00 0.00 0.00 0.00 0.00 0.00 0.00 0.00 0.00
0.04 0.04 0.04 0.04 0.01 0.01 0.00 0.00 0.00 0.00 0.00 0.00 0.00 0.00 0.00 0.03 0.06 0.04 0.01 0.00 0.00 0.00 0.00 0.00 0.00 0.00 0.00 0.00 0.00 0.00 0.00 0.00 0.00 0.00 0.00 0.00 0.00 0.00 0.00 0.00 0.00 0.00 0.00
0.09 0.10 0.13 0.08 0.06 0.03 0.04 0.02 0.00 0.00 0.00 0.00 0.00 0.00 0.02 0.05 0.05 0.03 0.01 0.00 0.00 0.00 0.00 0.00 0.00 0.00 0.00 0.00 0.00 0.00 0.00 0.00 0.00 0.00 0.00 0.00 0.00 0.00 0.00 0.00 0.00 0.00 0.00
0.00 0.01 0.03 0.07 0.04 0.07 0.03 0.05 0.02 0.00 0.00 0.00 0.00 0.01 0.03 0.06 0.06 0.03 0.00 0.00 0.00 0.00 0.00 0.00 0.00 0.00 0.00 0.00 0.00 0.00 0.00 0.00 0.00 0.00 0.00 0.00 0.00 0.00 0.00 0.00 0.00 0.00 0.00
0.00 0.00 0.00 0.01 0.04 0.10 0.05 0.01 0.01 0.02 0.00 0.05 0.04 0.04 0.06 0.07 0.04 0.02 0.01 0.00 0.00 0.00 0.00 0.00 0.00 0.00 0.00 0.00 0.00 0.00 0.00 0.00 0.00 0.00 0.00 0.00 0.00 0.00 0.00 0.00 0.00 0.00 0.00
0.00 0.00 0.00 0.00 0.01 0.01 0.08 0.16 0.18 0.25 0.30 0.23 0.14 0.13 0.12 0.10 0.07 0.03 0.00 0.00 0.00 0.00 0.00 0.00 0.00 0.00 0.00 0.00 0.00 0.00 0.00 0.00 0.00 0.00 0.00 0.00 0.00 0.00 0.00 0.00 0.00 0.00 0.00
0.00 0.00 0.00 0.00 0.00 0.00 0.04 0.09 0.13 0.33 0.62 0.54 0.47 0.48 0.57 0.33 0.18 0.12 0.04 0.00 0.00 0.00 0.00 0.00 0.00 0.00 0.00 0.00 0.00 0.00 0.00 0.00 0.00 0.00 0.00 0.00 0.00 0.00 0.00 0.00 0.00 0.00 0.00
0.00 0.00 0.00 0.00 0.00 0.00 0.00 0.00 0.13 0.28 0.57 1.38 1.74 2.32 2.42 1.59 0.48 0.21 0.06 0.01 0.00 0.00 0.00 0.00 0.00 0.00 0.00 0.00 0.00 0.00 0.00 0.00 0.00 0.00 0.00 0.00 0.00 0.00 0.00 0.00 0.00 0.00 0.00
0.00 0.00 0.00 0.00 0.00 0.00 0.00 0.00 0.03 0.06 0.13 0.90 1.94 2.11 1.63 0.99 0.31 0.08 0.02 0.00 0.00 0.00 0.00 0.00 0.00 0.00 0.00 0.00 0.00 0.00 0.00 0.00 0.00 0.00 0.00 0.00 0.00 0.00 0.00 0.00 0.00 0.00 0.00
0.00 0.00 0.00 0.00 0.00 0.00 0.00 0.00 0.00 0.00 0.02 0.20 0.51 0.61 0.37 0.16 0.06 0.02 0.01 0.00 0.00 0.00 0.00 0.00 0.00 0.00 0.00 0.00 0.00 0.00 0.00 0.00 0.00 0.00 0.00 0.00 0.00 0.00 0.00 0.00 0.00 0.00 0.00
0.00 0.00 0.00 0.00 0.00 0.00 0.00 0.00 0.00 0.00 0.00 0.00 0.00 0.00 0.02 0.01 0.00 0.00 0.00 0.00 0.00 0.00 0.00 0.00 0.00 0.00 0.00 0.00 0.00 0.00 0.00 0.00 0.00 0.00 0.00 0.00 0.00 0.00 0.00 0.00 0.00 0.00 0.00
0.00 0.00 0.00 0.00 0.00 0.00 0.00 0.00 0.00 0.00 0.00 0.00 0.00 0.00 0.00 0.00 0.00 0.00 0.00 0.00 0.00 0.00 0.00 0.00 0.00 0.00 0.00 0.00 0.00 0.00 0.00 0.00 0.00 0.00 0.00 0.00 0.00 0.00 0.00 0.00 0.00 0.00 0.00
0.00 0.01 0.02 0.01 0.00 0.00 0.00 0.00 0.00 0.00 0.00 0.00 0.00 0.02 0.02 0.00 0.00 0.00 0.00 0.00 0.00 0.00 0.00 0.00 0.00 0.00 0.00 0.00 0.00 0.00 0.00 0.00 0.00 0.00 0.00 0.00 0.00 0.00 0.00 0.00 0.00 0.00 0.00
0.03 0.03 0.04 0.02 0.00 0.00 0.00 0.01 0.01 0.01 0.00 0.01 0.01 0.01 0.01 0.01 0.00 0.00 0.00 0.00 0.00 0.00 0.00 0.00 0.00 0.00 0.00 0.00 0.00 0.00 0.00 0.00 0.00 0.00 0.00 0.00 0.00 0.00 0.00 0.00 0.00 0.00 0.00
0.03 0.05 0.04 0.02 0.00 0.00 0.00 0.01 0.01 0.02 0.03 0.02 0.01 0.02 0.01 0.01 0.01 0.00 0.00 0.00 0.00 0.00 0.00 0.00 0.00 0.00 0.00 0.00 0.00 0.00 0.00 0.00 0.00 0.00 0.00 0.00 0.00 0.00 0.00 0.00 0.00 0.00 0.00
0.05 0.03 0.04 0.02 0.00 0.00 0.00 0.01 0.01 0.02 0.05 0.06 0.02 0.03 0.05 0.02 0.00 0.00 0.00 0.00 0.00 0.00 0.00 0.00 0.00 0.00 0.00 0.00 0.00 0.00 0.00 0.00 0.00 0.00 0.00 0.00 0.00 0.00 0.00 0.00 0.00 0.00 0.00
0.03 0.04 0.03 0.00 0.00 0.00 0.00 0.00 0.01 0.02 0.03 0.07 0.12 0.08 0.05 0.03 0.01 0.01 0.01 0.00 0.00 0.00 0.00 0.00 0.00 0.00 0.00 0.00 0.00 0.00 0.00 0.00 0.00 0.00 0.00 0.00 0.00 0.00 0.00 0.00 0.00 0.00 0.00
0.00 0.00 0.00 0.00 0.01 0.01 0.00 0.00 0.01 0.01 0.02 0.05 0.07 0.08 0.10 0.07 0.04 0.03 0.01 0.00 0.00 0.00 0.00 0.00 0.00 0.00 0.00 0.00 0.00 0.00 0.00 0.00 0.00 0.00 0.00 0.00 0.00 0.00 0.00 0.00 0.00 0.00 0.00
0.01 0.00 0.00 0.00 0.02 0.03 0.01 0.01 0.01 0.01 0.00 0.00 0.00 0.01 0.01 0.04 0.06 0.08 0.06 0.02 0.00 0.00 0.00 0.00 0.00 0.00 0.00 0.00 0.00 0.00 0.00 0.00 0.00 0.00 0.00 0.00 0.00 0.00 0.00 0.00 0.00 0.00 0.00
0.01 0.01 0.00 0.01 0.03 0.02 0.06 0.04 0.01 0.01 0.01 0.00 0.00 0.00 0.00 0.01 0.01 0.01 0.04 0.07 0.06 0.03 0.01 0.00 0.00 0.00 0.00 0.00 0.00 0.00 0.00 0.00 0.00 0.00 0.00 0.00 0.00 0.00 0.00 0.00 0.00 0.00 0.00
0.01 0.00 0.00 0.01 0.03 0.05 0.02 0.05 0.04 0.01 0.01 0.04 0.03 0.02 0.03 0.03 0.02 0.01 0.01 0.01 0.01 0.01 0.00 0.00 0.00 0.00 0.00 0.00 0.00 0.00 0.00 0.00 0.00 0.00 0.00 0.00 0.00 0.00 0.00 0.00 0.00 0.00 0.00
MSLP
1008.36 1008.57 1009.05 1009.45 1009.84 1010.27 1010.66 1010.94 1011.17 1011.31 1011.45 1011.79 1011.83 1012.03 1012.29 1012.26 1012.13 1012.18 1012.31 1012.31 1012.30 1012.45 1012.26 1012.25 1012.19 1011.94 1011.93 1011.88 1012.23 1012.57 1012.96 1013.16 1014.08 1014.88 1015.24 1015.59 1015.76 1015.78 1015.74 1015.26 1015.29 1015.57 1015.80
1007.76 1008.44 1008.59 1008.86 1009.33 1009.74 1010.03 1010.22 1010.51 1010.92 1011.11 1011.27 1011.47 1011.63 1011.75 1011.72 1011.68 1011.94 1012.10 1012.34 1012.19 1012.27 1012.35 1012.42 1012.42 1012.17 1012.01 1012.24 1012.51 1012.93 1013.06 1013.39 1013.82 1014.91 1015.62 1016.00 1016.19 1016.32 1016.35 1016.31 1016.06 1016.20 1016.36
1007.42 1007.83 1008.37 1008.68 1008.98 1009.10 1009.31 1009.62 1010.01 1010.37 1010.65 1010.90 1011.01 1011.13 1011.21 1011.15 1011.26 1011.55 1011.90 1011.89 1011.86 1012.04 1012.28 1012.31 1012.39 1012.21 1012.26 1012.66 1012.93 1013.10 1013.37 1013.68 1014.18 1014.79 1015.72 1016.13 1016.40 1016.58 1016.73 1016.92 1016.92 1016.93 1016.78
1007.52 1007.60 1007.73 1008.03 1008.40 1008.67 1008.85 1009.12 1009.38 1009.78 1010.19 1010.28 1010.25 1010.38 1010.48 1010.54 1011.00 1011.29 1011.46 1011.54 1011.58 1011.83 1012.14 1012.27 1012.16 1011.98 1012.14 1012.69 1013.20 1013.39 1013.63 1014.06 1014.57 1015.13 1015.85 1016.41 1016.57 1016.71 1016.87 1017.37 1017.67 1017.54 1017.45
1007.14 1007.61 1007.61 1007.49 1007.64 1008.28 1008.55 1008.73 1008.85 1009.04 1009.31 1009.49 1009.63 1009.89 1010.21 1010.60 1010.94 1011.18 1011.31 1011.37 1011.72 1012.10 1012.18 1012.20 1012.32 1012.20 1012.31 1012.61 1013.02 1013.69 1014.01 1014.31 1014.86 1015.47 1016.11 1016.56 1016.81 1016.90 1017.27 1017.44 1017.88 1017.93 1017.72
1007.62 1007.68 1007.62 1007.82 1008.13 1008.02 1008.08 1008.23 1008.49 1008.61 1008.59 1008.87 1009.15 1009.54 1010.24 1010.57 1010.85 1011.08 1011.13 1011.42 1011.74 1012.12 1012.62 1012.53 1012.40 1012.49 1012.73 1012.85 1012.99 1013.44 1013.80 1014.32 1014.90 1015.43 1015.90 1016.32 1016.64 1016.73 1016.97 1017.30 1017.74 1018.04 1017.93
1008.85 1008.86 1008.66 1008.58 1007.92 1007.66 1007.75 1008.01 1008.03 1008.09 1008.31 1008.28 1008.68 1009.17 1009.70 1010.19 1010.73 1010.89 1010.91 1011.22 1011.55 1012.17 1012.56 1012.79 1012.89 1012.76 1012.82 1013.17 1013.37 1013.59 1013.92 1014.21 1014.35 1014.72 1015.23 1015.75 1016.16 1016.15 1016.46 1017.02 1017.33 1017.57 1017.56
1009.56 1009.28 1009.13 1008.68 1008.47 1008.23 1007.97 1007.33 1007.38 1007.49 1007.63 1007.78 1008.04 1008.24 1009.25 1009.77 1010.40 1010.54 1010.79 1011.09 1011.68 1011.59 1011.94 1012.50 1012.94 1013.35 1013.22 1013.26 1013.65 1013.97 1014.11 1014.06 1014.12 1014.30 1014.43 1014.86 1015.15 1015.53 1015.85 1016.09 1016.52 1017.19 1017.46
1010.03 1009.68 1009.42 1009.28 1008.83 1008.21 1007.55 1007.04 1006.61 1006.74 1006.88 1007.08 1007.31 1008.04 1008.73 1009.88 1010.69 1011.02 1011.40 1011.55 1011.78 1011.91 1011.99 1012.40 1012.87 1013.39 1013.70 1013.76 1013.70 1014.17 1014.32 1014.09 1013.64 1013.77 1014.03 1014.28 1014.72 1015.06 1015.49 1016.11 1016.77 1017.08 1017.71
1010.34 1010.04 1009.72 1009.36 1008.91 1008.34 1007.68 1006.87 1006.04 1006.25 1006.34 1006.42 1007.05 1007.54 1008.50 1009.41 1010.26 1010.58 1011.12 1011.09 1011.99 1012.46 1012.67 1012.44 1012.85 1013.16 1013.93 1014.27 1014.23 1014.32 1014.46 1014.26 1013.95 1013.90 1014.35 1014.50 1014.75 1015.18 1015.24 1015.45 1016.27 1017.03 1017.33
1010.29 1010.08 1009.70 1009.36 1008.90 1008.22 1007.59 1006.74 1006.08 1005.89 1005.94 1006.72 1007.24 1007.63 1007.74 1008.70 1009.97 1010.32 1010.88 1010.53 1011.42 1012.43 1012.59 1012.90 1013.08 1013.35 1013.41 1014.24 1014.56 1014.37 1014.36 1014.25 1014.22 1014.01 1014.64 1014.95 1015.17 1015.53 1015.72 1015.61 1015.82 1016.29 1016.66
1009.93 1009.83 1009.63 1009.26 1008.79 1008.30 1007.73 1007.02 1006.31 1006.30 1007.46 1008.09 1007.94 1009.31 1008.92 1006.72 1010.11 1011.63 1010.64 1011.07 1011.07 1012.21 1012.56 1012.97 1013.23 1013.72 1013.58 1013.82 1014.38 1014.34 1014.44 1014.41 1014.53 1014.53 1014.93 1015.51 1015.65 1015.82 1015.78 1015.59 1015.70 1015.84 1015.90
1009.58 1009.51 1009.35 1009.03 1008.67 1008.49 1008.23 1007.90 1007.58 1007.19 1007.66 1008.29 1008.28 1008.67 1008.33 1009.47 1008.11 1012.03 1011.69 1010.84 1011.04 1011.93 1012.18 1012.39 1013.09 1013.59 1014.00 1013.68 1014.10 1014.18 1014.30 1014.82 1015.14 1014.98 1014.85 1015.26 1015.42 1015.46 1015.64 1015.80 1015.55 1015.74 1015.85
1009.39 1009.09 1009.00 1008.82 1008.40 1008.35 1008.40 1008.57 1008.34 1008.04 1007.68 1007.91 1007.46 1007.34 1006.58 1006.67 1010.40 1011.57 1011.08 1010.76 1010.52 1011.43 1011.99 1012.35 1013.18 1013.44 1013.99 1013.69 1014.32 1014.35 1014.19 1014.70 1014.88 1014.96 1014.67 1014.67 1015.10 1015.50 1015.76 1015.85 1015.89 1015.91 1016.23
1009.00 1008.80 1008.61 1008.41 1008.16 1008.23 1008.72 1008.85 1008.39 1007.81 1007.76 1007.94 1006.98 1006.27 1005.79 1005.85 1005.94 1008.13 1008.36 1009.58 1009.54 1010.02 1011.44 1012.14 1013.13 1013.49 1014.09 1014.21 1014.27 1014.31 1014.36 1014.40 1014.76 1014.72 1014.72 1014.67 1014.89 1015.28 1015.69 1015.79 1015.82 1016.01 1016.25
1008.50 1008.30 1007.96 1007.93 1007.81 1007.88 1008.27 1008.69 1008.25 1007.93 1007.62 1006.81 1007.04 1006.85 1006.43 1006.65 1006.30 1006.97 1007.63 1008.20 1009.29 1009.36 1010.27 1011.17 1012.25 1012.98 1013.46 1013.99 1014.31 1014.13 1014.13 1014.20 1014.30 1014.13 1014.22 1014.15 1014.37 1014.84 1015.31 1015.72 1015.83 1015.88 1016.15
1007.71 1007.61 1007.39 1007.33 1007.35 1007.47 1007.81 1008.13 1008.06 1007.31 1007.25 1007.00 1006.61 1006.35 1006.41 1007.02 1007.52 1008.22 1008.51 1009.32 1009.89 1009.54 1010.12 1011.24 1011.82 1012.34 1012.85 1013.31 1014.03 1014.00 1013.97 1014.23 1014.09 1013.98 1014.07 1014.02 1014.09 1014.46 1015.03 1015.47 1015.70 1015.90 1016.04
1006.74 1006.67 1006.57 1006.57 1006.66 1006.76 1007.09 1007.27 1007.39 1007.45 1007.14 1007.24 1006.91 1006.91 1007.06 1007.70 1008.17 1008.65 1008.78 1009.25 1010.03 1009.27 1009.81 1010.86 1011.82 1012.11 1012.50 1013.10 1013.80 1013.94 1014.15 1014.28 1014.42 1014.15 1014.29 1014.28 1014.07 1014.37 1014.83 1015.11 1015.44 1015.53 1015.62
1005.96 1005.92 1005.80 1005.82 1006.02 1005.95 1006.22 1006.51 1006.53 1006.96 1007.28 1007.59 1007.48 1007.92 1008.45 1008.14 1008.69 1009.18 1009.34 1009.38 1009.53 1009.16 1009.69 1010.74 1011.12 1011.75 1012.61 1012.98 1013.46 1013.86 1014.10 1014.34 1014.63 1014.54 1014.89 1014.94 1014.90 1014.85 1015.25 1015.30 1015.30 1015.32 1015.50
1005.33 1005.11 1005.04 1005.09 1005.20 1005.32 1005.42 1005.95 1005.89 1006.41 1007.06 1007.54 1007.80 1007.95 1008.28 1008.52 1008.50 1008.68 1008.93 1009.23 1009.59 1009.86 1010.49 1010.99 1011.16 1011.61 1012.45 1013.12 1013.48 1014.11 1014.17 1014.39 1014.73 1014.72 1014.86 1015.12 1015.23 1015.42 1015.46 1015.58 1015.71 1015.78 1015.79
1004.59 1004.39 1004.37 1004.58 1004.65 1004.75 1004.68 1005.11 1005.40 1005.94 1006.52 1007.04 1007.30 1007.54 1007.75 1007.76 1008.17 1008.65 1008.99 1008.94 1009.04 1009.28 1010.10 1010.94 1011.49 1011.90 1012.12 1012.93 1013.59 1014.33 1014.56 1014.39 1014.68 1015.05 1015.19 1015.09 1015.30 1015.70 1016.24 1016.07 1015.99 1015.95 1016.05
1003.96 1003.96 1004.13 1004.21 1004.16 1004.24 1004.17 1004.40 1004.89 1005.44 1005.88 1006.50 1007.15 1007.61 1007.88 1008.02 1008.62 1008.95 1009.26 1009.10 1008.98 1009.12 1009.85 1010.69 1011.79 1012.07 1012.21 1013.05 1013.64 1014.59 1015.17 1015.14 1015.27 1015.34 1015.50 1015.62 1015.56 1015.87 1016.21 1016.64 1016.22 1016.44 1016.56
1003.50 1003.52 1003.58 1003.63 1003.65 1003.61 1003.83 1003.96 1004.41 1005.18 1005.72 1006.27 1006.94 1007.45 1008.00 1008.30 1008.59 1008.72 1009.33 1009.60 1009.38 1009.82 1010.51 1011.27 1011.94 1012.64 1012.76 1013.46 1014.17 1014.31 1014.98 1015.39 1015.79 1015.89 1015.69 1015.89 1015.97 1016.20 1016.24 1016.56 1016.83 1016.81 1016.76
1002.99 1003.06 1003.10 1003.12 1003.06 1003.09 1003.40 1003.72 1004.34 1004.87 1005.47 1006.26 1006.92 1007.58 1008.04 1008.39 1008.59 1009.11 1010.07 1010.35 1010.18 1010.55 1011.11 1011.74 1012.60 1013.00 1013.54 1014.39 1014.52 1014.77 1015.21 1015.59 1015.90 1015.79 1015.74 1016.13 1016.52 1016.66 1016.70 1016.83 1017.01 1016.80 1016.77
1002.73 1002.81 1002.84 1002.84 1002.86 1002.87 1003.08 1003.79 1004.51 1005.17 1005.90 1006.57 1007.30 1007.73 1008.13 1008.47 1009.07 1010.01 1010.65 1010.59 1011.34 1011.65 1011.90 1012.60 1012.95 1013.37 1014.21 1014.82 1014.95 1015.21 1015.56 1015.93 1016.15 1016.25 1015.92 1016.21 1016.62 1016.87 1016.88 1017.27 1017.18 1016.99 1016.94
1002.89 1003.07 1003.14 1003.08 1003.19 1003.30 1003.49 1004.18 1004.72 1005.50 1006.32 1006.88 1007.54 1008.20 1008.81 1009.10 1009.51 1009.72 1010.36 1011.23 1011.71 1011.77 1012.75 1013.58 1013.79 1014.00 1014.54 1015.22 1015.37 1015.36 1015.91 1016.10 1016.31 1016.50 1016.43 1016.17 1016.44 1016.97 1016.88 1017.05 1017.15 1017.16 1016.98
Thickness
5855 5852 5848 5843 5840 5836 5831 5827 5824 5822 5820 5816 5814 5810 5806 5806 5805 5804 5803 5802 5799 5796 5796 5792 5787 5785 5778 5772 5762 5750 5738 5727 5710 5698 5688 5677 5668 5661 5656 5655 5648 5640 5635
5859 5852 5849 5847 5842 5837 5834 5831 5828 5822 5820 5817 5813 5809 5807 5807 5808 5804 5802 5799 5798 5794 5792 5789 5784 5782 5776 5768 5758 5746 5736 5726 5714 5697 5685 5673 5665 5658 5652 5647 5641 5635 5629
5859 5854 5849 5845 5841 5839 5837 5834 5829 5824 5820 5817 5815 5812 5811 5811 5810 5808 5803 5801 5800 5796 5792 5788 5782 5778 5772 5763 5753 5743 5733 5724 5713 5699 5685 5674 5665 5657 5649 5643 5637 5631 5626
5855 5852 5849 5845 5842 5839 5838 5834 5831 5826 5820 5820 5820 5818 5817 5816 5811 5807 5805 5804 5801 5797 5792 5788 5784 5779 5772 5761 5750 5741 5731 5720 5709 5698 5685 5673 5665 5657 5650 5641 5634 5630 5627
5853 5847 5847 5846 5844 5837 5834 5833 5831 5828 5826 5824 5823 5820 5816 5811 5806 5803 5803 5801 5795 5789 5787 5785 5780 5778 5771 5763 5753 5739 5728 5719 5709 5697 5685 5674 5665 5657 5648 5642 5635 5633 5631
5843 5841 5842 5837 5833 5833 5832 5830 5828 5826 5827 5825 5823 5820 5810 5807 5802 5800 5800 5795 5789 5784 5778 5778 5777 5772 5766 5761 5754 5744 5732 5720 5709 5698 5687 5679 5670 5663 5654 5648 5640 5636 5635
5821 5824 5825 5824 5827 5830 5829 5826 5825 5824 5823 5823 5820 5815 5808 5804 5798 5796 5796 5792 5788 5780 5774 5770 5769 5767 5762 5756 5750 5742 5733 5724 5717 5708 5695 5686 5678 5673 5662 5654 5649 5645 5645
5801 5807 5810 5815 5814 5817 5818 5823 5824 5822 5820 5819 5817 5816 5806 5803 5798 5796 5795 5790 5781 5782 5777 5771 5765 5759 5757 5752 5746 5738 5731 5725 5720 5713 5707 5697 5690 5684 5675 5666 5661 5654 5652
5784 5789 5793 5796 5800 5806 5811 5815 5819 5819 5817 5814 5814 5809 5803 5792 5787 5784 5781 5778 5775 5773 5772 5767 5762 5755 5750 5746 5744 5736 5729 5725 5724 5719 5712 5705 5696 5691 5685 5673 5664 5661 5655
5768 5772 5776 5779 5784 5791 5799 5809 5816 5813 5811 5810 5805 5802 5794 5785 5780 5777 5774 5775 5765 5760 5759 5761 5758 5753 5745 5739 5736 5733 5727 5725 5723 5720 5712 5707 5700 5693 5690 5686 5673 5666 5664
5755 5758 5761 5765 5770 5778 5786 5796 5806 5804 5801 5791 5786 5786 5786 5776 5766 5766 5763 5770 5761 5751 5751 5750 5749 5745 5746 5736 5730 5730 5726 5726 5721 5719 5710 5705 5700 5694 5690 5689 5686 5678 5672
5745 5746 5747 5751 5758 5764 5771 5778 5789 5785 5772 5769 5768 5757 5730 5732 5732 5740 5750 5753 5756 5747 5744 5742 5740 5735 5738 5736 5728 5726 5723 5721 5717 5715 5710 5701 5698 5694 5692 5692 5690 5687 5686
5729 5732 5734 5739 5745 5748 5750 5756 5761 5762 5758 5754 5757 5748 5747 5682 5717 5715 5728 5743 5746 5743 5741 5739 5734 5731 5727 5732 5727 5723 5720 5714 5711 5709 5710 5704 5701 5699 5695 5692 5694 5692 5691
5713 5717 5718 5721 5731 5735 5735 5737 5742 5741 5746 5743 5749 5747 5747 5745 5730 5724 5728 5734 5742 5738 5735 5732 5725 5726 5721 5726 5718 5717 5718 5710 5710 5706 5709 5709 5703 5698 5695 5693 5692 5692 5690
5698 5703 5705 5705 5714 5717 5715 5717 5725 5729 5734 5732 5743 5749 5754 5755 5765 5754 5756 5746 5749 5746 5733 5728 5720 5720 5715 5714 5713 5712 5711 5709 5705 5704 5705 5708 5705 5699 5694 5694 5693 5690 5689
5682 5687 5691 5694 5698 5700 5703 5703 5708 5710 5713 5726 5728 5733 5743 5745 5750 5750 5746 5742 5734 5737 5735 5728 5723 5718 5715 5709 5706 5709 5707 5706 5705 5705 5702 5706 5707 5701 5695 5691 5692 5692 5688
5667 5671 5677 5680 5681 5686 5687 5692 5696 5703 5702 5706 5714 5723 5729 5728 5725 5723 5722 5719 5717 5727 5725 5719 5718 5716 5712 5708 5701 5702 5701 5698 5701 5700 5699 5700 5701 5700 5696 5691 5688 5689 5688
5653 5656 5663 5664 5666 5673 5675 5680 5685 5691 5697 5696 5698 5703 5703 5703 5704 5703 5706 5708 5708 5715 5714 5711 5707 5709 5705 5700 5695 5695 5691 5689 5689 5694 5691 5691 5696 5696 5694 5693 5689 5689 5688
5638 5643 5647 5651 5652 5661 5663 5668 5676 5679 5683 5679 5683 5681 5680 5686 5686 5686 5689 5696 5697 5702 5698 5695 5698 5699 5693 5691 5689 5686 5684 5682 5679 5681 5680 5680 5681 5685 5684 5686 5687 5687 5685
5624 5629 5635 5639 5643 5649 5652 5653 5663 5666 5666 5667 5668 5672 5671 5673 5678 5680 5680 5680 5681 5684 5682 5682 5685 5686 5683 5679 5678 5673 5673 5672 5671 5671 5672 5670 5671 5671 5674 5676 5677 5678 5679
5614 5618 5623 5626 5632 5637 5643 5643 5649 5652 5655 5656 5658 5658 5660 5667 5667 5667 5665 5668 5674 5677 5676 5673 5670 5670 5674 5670 5666 5660 5659 5664 5663 5661 5662 5663 5662 5662 5657 5660 5662 5667 5668
5606 5609 5612 5616 5622 5627 5634 5637 5638 5640 5644 5645 5643 5642 5644 5649 5649 5649 5649 5655 5662 5668 5665 5663 5656 5657 5660 5656 5654 5646 5642 5646 5648 5649 5649 5649 5651 5651 5651 5648 5654 5654 5654
5601 5604 5607 5611 5616 5620 5624 5630 5631 5630 5631 5632 5630 5630 5630 5632 5634 5637 5638 5641 5647 5648 5646 5642 5642 5640 5643 5640 5638 5640 5634 5632 5631 5633 5637 5637 5639 5638 5640 5640 5640 5642 5643
5596 5598 5602 5605 5609 5614 5618 5621 5622 5620 5620 5619 5618 5615 5615 5616 5620 5620 5617 5620 5628 5629 5629 5627 5624 5625 5624 5620 5623 5623 5622 5620 5619 5623 5625 5625 5624 5625 5626 5628 5629 5633 5634
5591 5593 5595 5597 5600 5607 5613 5611 5609 5608 5605 5604 5601 5601 5601 5602 5600 5597 5595 5598 5600 5602 5604 5604 5608 5610 5608 5606 5607 5608 5609 5608 5607 5609 5614 5614 5613 5613 5615 5613 5616 5620 5622
5584 5585 5587 5591 5593 5598 5602 5600 5601 5597 5592 5591 5588 5584 5582 5583 5583 5585 5585 5583 5584 5589 5584 5586 5591 5593 5592 5590 5593 5599 5597 5597 5597 5596 5599 5604 5604 5602 5605 5606 5606 5606 5609